Location: Helsinki
(60.1699°N, 24.9384°E)
Time: 15:20:01
(UTC+02:00)

S-56A Canister/Altair - Visible Passes

Search period start: 30 October 2020 00:00
Search period end: 09 November 2020 00:00
Orbit: 633 x 2499 km, 38.9° (Epoch: 29 October)

Date Brightness Start Highest point End Pass type
(mag) Time Alt. Az. Time Alt. Az. Time Alt. Az.
30 Oct 10.7 06:11:22 10° SSE 06:12:29 10° SSE 06:13:39 10° SE visible
02 Nov 10.4 06:34:43 10° S 06:36:49 12° SSE 06:39:08 10° SSE visible
03 Nov 10.5 06:04:11 10° SSE 06:04:20 10° SSE 06:04:27 10° SSE visible
